932  
ASUS41 KALY 161110  
RWRALY  
 
NEW YORK STATE HOURLY WEATHER ROUNDUP  
NATIONAL WEATHER SERVICE ALBANY NY  
700 AM EDT WED OCT 16 2019  
 
NOTE: "FAIR" INDICATES FEW OR NO CLOUDS BELOW 12,000 FEET WITH NO  
SIGNIFICANT WEATHER AND/OR NO S TO VISIBILITY
.  
 
NYZ032-033-038>043-046>054-057>066-NYZ062>081-082-084-161200-  
EAST  
 
 
CITY SKY/WX TMP DP RH WIND PRES REMARKS
 
ALBANY FAIR 39 34 82 NW3 29.97F  
GLENS FALLS MOCLDY 31 29 92 CALM 29.96F  
POUGHKEEPSIE FAIR 37 34 89 CALM 29.99S  
NEWBURGH PTCLDY 41 41 100 VRB5 29.99F  
MONTGOMERY CLOUDY 39 37 92 CALM 29.98F  
WHITE PLAINS MOCLDY 50 45 83 E6 29.99S  
ISLIP FAIR 46 44 93 E6 30.01S  
NEW YORK CITY MOCLDY 57 44 62 SE9 29.98F  
CENTRAL PARK FAIR 57 46 66 VRB7 30.01F  

 
 
NYZ005>009-017-018-044>046-055-056-161200-  
CENTRAL  
 
 
CITY SKY/WX TMP DP RH WIND PRES REMARKS
 
FULTON CLOUDY 53 40 61 SE7 29.75F  
SYRACUSE MOCLDY 54 43 66 SE9G18 29.77F  
ROME MOCLDY 48 41 76 E9 29.84F  
ELMIRA FAIR 45 42 89 CALM 29.78F  
BINGHAMTON CLOUDY 48 45 89 SE9 29.84F  
MONTICELLO CLOUDY 45 44 97 E8 29.96F FOG  

 
 
NYZ026>034-041>043-087-161200-  
NORTH  
 
 
CITY SKY/WX TMP DP RH WIND PRES REMARKS
 
WATERTOWN CLOUDY 51 41 68 CALM 29.74F  
FORT DRUM NOT AVBL  
OGDENSBURG MOCLDY 39 37 93 CALM 29.77F  
MASSENA FAIR 43 37 79 E8 29.83F  
SARANAC LAKE MOCLDY 36 32 85 NE3 29.84F  
PLATTSBURGH FAIR 38 35 89 SW5 29.92F WCI 34  

 
 
NYZ001>004-010>016-019>021-085-161200-  
WEST  
 
 
CITY SKY/WX TMP DP RH WIND PRES REMARKS
 
NIAGARA FALLS LGT RAIN 58 46 64 S14 29.56F  
BUFFALO CLOUDY 58 42 55 S15 29.57F  
DUNKIRK CLOUDY 62 43 49 S16G28 29.58F  
JAMESTOWN CLOUDY 55 42 61 S10G20 29.62F  
WELLSVILLE CLOUDY 50 41 71 S8G22 29.72F  
ROCHESTER CLOUDY 58 41 53 S13 29.65F  
PENN YAN FAIR 53 44 71 S9 29.73F  

 
 
KEY  
WCI = WIND CHILL INDEX  
VSB = VISIBILITY  
HX = HEAT INDEX  

 
 
 
CLICK HERE TO GO TO PREVIOUS BULLETINS.

The Nexlab NY Page
The Nexlab VT Page
The Nexlab MA Page
The Nexlab CT Page Main Text Page